Home   Weather   Biarritz   Past weeks

Flag for France Past Weather in Biarritz, Aquitaine, France — Yesterday and Last 2 Weeks

57 °F


Feels Like: 56 °F
Forecast: 61 / 67 °F
Wind: 6 mph from East

Location: Biarritz Airport

Current Time: Oct 25, 2016 at 6:54:40 AM

Latest Report: Oct 25, 2016 at 6:30 AM

Visibility: 10 mi

Pressure: 30.01 "Hg

Humidity: 94%

Dew Point: 55 °F

Location of BiarritzLocation

Past Weather in Biarritz — Graph


Biarritz Temperature Yesterday

Maximum temperature yesterday: 66 °F (at 4:00 PM)
Minimum temperature yesterday: 57 °F (at 11:30 PM)
Average temperature yesterday: 62 °F

High & Low Weather Summary for the Past Weeks

High77 °F (Oct 23, 3:30 PM)100% (Oct 13, 2:00 AM)30.36 "Hg (Oct 13, 2:00 AM)
Low39 °F (Oct 11, 6:30 AM)37% (Oct 10, 6:00 PM)29.50 "Hg (Oct 23, 7:00 AM)
Average59 °F73%29.93 "Hg
* Reported Oct 10 5:00 AM — Oct 25 5:30 AM, Biarritz, Weather by CustomWeather, © 2016

Note: Actual official high and low records may vary slightly from our data, if they occured in-between our weather recording intervals... More about our weather records


Biarritz Weather History for the Previous 24 Hours

Scroll right to see more
Time TempWeatherWind HumidityBarometerVisibility
5:30 AM
Tue, Oct 25
57 °FClear.8 mph94%30.01 "Hg10 mi
5:00 AM55 °FClear.6 mph94%30.01 "Hg10 mi
4:30 AM57 °FClear.6 mph88%30.01 "Hg10 mi
4:00 AM57 °FClear.6 mph94%30.01 "Hg10 mi
3:30 AM57 °FClear.6 mph94%30.01 "Hg10 mi
3:00 AM57 °FClear.7 mph94%30.01 "Hg10 mi
2:30 AM57 °FClear.5 mph94%30.01 "Hg10 mi
2:00 AM59 °FPassing clouds.6 mph88%30.01 "HgN/A
1:30 AM57 °FClear.6 mph88%30.01 "Hg10 mi
1:00 AM57 °FClear.5 mph88%30.01 "Hg10 mi
12:30 AM57 °FClear.5 mph88%30.01 "Hg10 mi
12:00 AM57 °FPartly cloudy.5 mph88%30.01 "HgN/A
11:30 PM
Mon, Oct 24
57 °FClear.5 mph82%29.98 "Hg10 mi
11:00 PM59 °FClear.6 mph88%29.98 "Hg10 mi
10:30 PM59 °FClear.6 mph88%29.98 "Hg10 mi
10:00 PM59 °FClear.3 mph88%29.95 "Hg10 mi
9:30 PM59 °FClear.5 mph94%29.95 "Hg10 mi
9:00 PM59 °FClear.5 mph94%29.92 "Hg10 mi
8:30 PM59 °FClear.5 mph94%29.92 "Hg10 mi
8:00 PM61 °FClear.5 mph88%29.92 "Hg10 mi
7:30 PM61 °FClear.5 mph88%29.92 "Hg10 mi
7:00 PM61 °FSunny.5 mph88%29.89 "Hg10 mi
6:30 PM63 °FPassing clouds.6 mph83%29.89 "HgN/A
6:00 PM64 °FSunny.6 mph73%29.89 "Hg10 mi
5:30 PM64 °FPassing clouds.3 mph73%29.89 "HgN/A
5:00 PM64 °FLight rain. Clear.3 mph68%29.89 "HgN/A
4:30 PM64 °FPassing clouds.6 mph68%29.89 "HgN/A
4:00 PM66 °FSunny.3 mph60%29.89 "Hg10 mi
3:30 PM64 °FPassing clouds.5 mph64%29.86 "HgN/A
3:00 PM64 °FPassing clouds.5 mph68%29.86 "HgN/A
2:30 PM64 °FPassing clouds.5 mph68%29.86 "HgN/A
2:00 PM63 °FOvercast.5 mph73%29.86 "HgN/A
1:30 PM64 °FRain. Overcast.9 mph64%29.86 "HgN/A
1:00 PM64 °FPassing clouds.9 mph60%29.86 "HgN/A
12:30 PM64 °FPassing clouds.5 mph64%29.86 "HgN/A
12:00 PM64 °FPassing clouds.6 mph64%29.83 "HgN/A
11:30 AM64 °FPassing clouds.7 mph64%29.83 "HgN/A
11:00 AM64 °FPassing clouds.9 mph64%29.83 "HgN/A
10:30 AM64 °FMostly cloudy.9 mph64%29.80 "HgN/A
10:00 AM63 °FMore clouds than sun.8 mph68%29.80 "HgN/A
9:30 AM63 °FMostly cloudy.7 mph68%29.80 "HgN/A
9:00 AM63 °FBroken clouds.7 mph68%29.77 "HgN/A
8:30 AM63 °FPassing clouds.5 mph68%29.77 "HgN/A
8:00 AM63 °FClear.3 mph68%29.77 "Hg10 mi
7:30 AM63 °FPassing clouds.5 mph68%29.74 "HgN/A
7:00 AM63 °FOvercast.6 mph68%29.74 "HgN/A
6:30 AM63 °FOvercast.6 mph68%29.74 "HgN/A
6:00 AM61 °FClear.3 mph77%29.74 "Hg10 mi
Weather by CustomWeather, © 2016

See weather overviewHow to use our weather pages